Location: Buenos Aires
(34.6076°S, 58.4371°W)
Time: 08:56:59
(UTC+00:00)

ISS - Pass Details

Date: 21 November 2023
Orbit: 416 x 417 km, 51.6° (Epoch: 01 December)

Event Time Altitude Azimuth Distance (km) Brightness Sun altitude
Exits shadow 07:01:19 14° 24° (NNE) 1,298 -1.5 -17.4°
Maximum altitude 07:02:41 17° 52° (NE) 1,162 -1.4 -17.2°
Drops below altitude 10° 07:04:58 10° 94° (E) 1,519 -0.1 -16.9°
Sets 07:07:36 0° 115° (ESE) 2,390 1.6 -16.5°
